| time (UTC) | temp F | wind direction | speed knots | gust knots | rain 1hr in | rain 24hr in | rain mn in | humidity % | barometer mb |
| 20260507015503 | 60 | 225 | 1.7 | 3.5 | 0.00 | 0.00 | 0.00 | 73 | 1018.2 |
| 20260507015003 | 60 | 225 | 1.7 | 4.3 | 0.00 | 0.00 | 0.00 | 73 | 1018.2 |
| 20260507014503 | 60 | 225 | 2.6 | 4.3 | 0.00 | 0.00 | 0.00 | 73 | 1018.3 |
| 20260507014003 | 60 | 225 | 2.6 | 4.3 | 0.00 | 0.00 | 0.00 | 73 | 1018.2 |
| 20260507013503 | 60 | 225 | 2.6 | 4.3 | 0.00 | 0.00 | 0.00 | 73 | 1018.2 |
| 20260507013003 | 60 | 225 | 2.6 | 4.3 | 0.00 | 0.00 | 0.00 | 73 | 1018.3 |
| 20260507012503 | 60 | 225 | 2.6 | 4.3 | 0.00 | 0.00 | 0.00 | 73 | 1018.2 |
| 20260507012003 | 61 | 225 | 2.6 | 4.3 | 0.00 | 0.00 | 0.00 | 73 | 1018.2 |
| 20260507011503 | 61 | 225 | 2.6 | 5.2 | 0.00 | 0.00 | 0.00 | 73 | 1018.3 |
| 20260507010503 | 60 | 225 | 2.6 | 5.2 | 0.00 | 0.00 | 0.00 | 74 | 1018.3 |
| 20260507010216 | 60 | 225 | 2.6 | 7.0 | 0.00 | 0.00 | 0.00 | 74 | 1018.2 |
| 20260507005503 | 60 | 225 | 4.3 | 7.0 | 0.00 | 0.00 | 0.00 | 73 | 1018.3 |
| 20260507005217 | 60 | 225 | 3.5 | 7.0 | 0.00 | 0.00 | 0.00 | 73 | 1018.3 |
| 20260507004503 | 60 | 225 | 3.5 | 5.2 | 0.00 | 0.00 | 0.00 | 73 | 1018.3 |
| 20260507004003 | 60 | 225 | 3.5 | 7.0 | 0.00 | 0.00 | 0.00 | 73 | 1018.3 |
| 20260507003503 | 60 | 225 | 3.5 | 7.0 | 0.00 | 0.00 | 0.00 | 73 | 1018.2 |
| 20260507003003 | 61 | 225 | 3.5 | 6.1 | 0.00 | 0.00 | 0.00 | 74 | 1018.1 |
| 20260507002717 | 61 | 225 | 3.5 | 6.1 | 0.00 | 0.00 | 0.00 | 73 | 1018.2 |
| 20260507002003 | 61 | 225 | 3.5 | 7.8 | 0.00 | 0.00 | 0.00 | 73 | 1018.2 |
| 20260507001713 | 61 | 225 | 3.5 | 7.8 | 0.00 | 0.00 | 0.00 | 73 | 1018.2 |
| 20260507001003 | 62 | 225 | 3.5 | 5.2 | 0.00 | 0.00 | 0.00 | 73 | 1018.3 |
| 20260507000714 | 62 | 225 | 3.5 | 7.0 | 0.00 | 0.00 | 0.00 | 73 | 1018.3 |
| 20260507000003 | 62 | 225 | 3.5 | 7.0 | 0.00 | 0.00 | 0.00 | 72 | 1018.3 |
| 20260506235503 | 62 | 225 | 4.3 | 7.0 | 0.00 | 0.00 | 0.00 | 73 | 1018.3 |
| 20260506235003 | 62 | 225 | 3.5 | 7.0 | 0.00 | 0.00 | 0.00 | 73 | 1018.3 |
| 20260506234503 | 62 | 225 | 3.5 | 8.7 | 0.00 | 0.00 | 0.00 | 73 | 1018.3 |
| 20260506234003 | 62 | 225 | 4.3 | 8.7 | 0.00 | 0.00 | 0.00 | 73 | 1018.2 |
| 20260506233503 | 63 | 225 | 3.5 | 6.1 | 0.00 | 0.00 | 0.00 | 72 | 1018.3 |
| 20260506233003 | 63 | 225 | 3.5 | 6.1 | 0.00 | 0.00 | 0.00 | 72 | 1018.4 |
| 20260506232503 | 63 | 225 | 3.5 | 7.0 | 0.00 | 0.00 | 0.00 | 72 | 1018.4 |
| 20260506232003 | 63 | 225 | 3.5 | 7.0 | 0.00 | 0.00 | 0.00 | 72 | 1018.3 |
| 20260506231714 | 63 | 225 | 3.5 | 7.0 | 0.00 | 0.00 | 0.00 | 72 | 1018.5 |
| 20260506231003 | 63 | 225 | 4.3 | 9.6 | 0.00 | 0.00 | 0.00 | 72 | 1018.6 |
| 20260506230503 | 63 | 225 | 4.3 | 9.6 | 0.00 | 0.00 | 0.00 | 73 | 1018.6 |
| 20260506230003 | 63 | 225 | 4.3 | 8.7 | 0.00 | 0.00 | 0.00 | 73 | 1018.6 |
| 20260506225503 | 63 | 225 | 4.3 | 8.7 | 0.00 | 0.00 | 0.00 | 73 | 1018.6 |
| 20260506225003 | 63 | 225 | 5.2 | 7.8 | 0.00 | 0.00 | 0.00 | 72 | 1018.7 |
| 20260506224716 | 63 | 225 | 5.2 | 7.8 | 0.00 | 0.00 | 0.00 | 73 | 1018.7 |
| 20260506224003 | 64 | 225 | 5.2 | 8.7 | 0.00 | 0.00 | 0.00 | 71 | 1018.8 |
| 20260506223503 | 64 | 225 | 4.3 | 7.8 | 0.00 | 0.00 | 0.00 | 72 | 1018.8 |
| 20260506223003 | 64 | 225 | 4.3 | 7.8 | 0.00 | 0.00 | 0.00 | 72 | 1018.9 |
| 20260506222713 | 64 | 225 | 4.3 | 8.7 | 0.00 | 0.00 | 0.00 | 72 | 1018.8 |
| 20260506222003 | 64 | 225 | 5.2 | 9.6 | 0.00 | 0.00 | 0.00 | 72 | 1018.9 |
| 20260506221503 | 63 | 226 | 5.2 | 9.6 | 0.00 | 0.00 | 0.00 | 72 | 1019.0 |
| 20260506221003 | 64 | 226 | 4.3 | 7.8 | 0.00 | 0.00 | 0.00 | 72 | 1019.0 |
| 20260506220503 | 63 | 226 | 5.2 | 8.7 | 0.00 | 0.00 | 0.00 | 72 | 1019.1 |
| 20260506220003 | 64 | 226 | 5.2 | 8.7 | 0.00 | 0.00 | 0.00 | 71 | 1019.1 |
| 20260506215503 | 64 | 226 | 5.2 | 8.7 | 0.00 | 0.00 | 0.00 | 71 | 1019.1 |
| 20260506215003 | 65 | 226 | 4.3 | 7.8 | 0.00 | 0.00 | 0.00 | 70 | 1019.2 |
| 20260506214503 | 66 | 227 | 3.5 | 7.8 | 0.00 | 0.00 | 0.00 | 70 | 1019.3 |
| 20260506214215 | 66 | 227 | 3.5 | 7.0 | 0.00 | 0.00 | 0.00 | 70 | 1019.2 |
| 20260506213503 | 67 | 227 | 2.6 | 7.0 | 0.00 | 0.00 | 0.00 | 69 | 1019.3 |
| 20260506213003 | 68 | 227 | 2.6 | 7.0 | 0.00 | 0.00 | 0.00 | 68 | 1019.4 |
| 20260506212503 | 68 | 227 | 1.7 | 7.0 | 0.00 | 0.00 | 0.00 | 69 | 1019.4 |
| 20260506212003 | 68 | 227 | 0.9 | 4.3 | 0.00 | 0.00 | 0.00 | 66 | 1019.4 |
| 20260506211503 | 68 | 227 | 0.9 | 4.3 | 0.00 | 0.00 | 0.00 | 68 | 1019.5 |
| 20260506211003 | 69 | 227 | 0.9 | 3.5 | 0.00 | 0.00 | 0.00 | 66 | 1019.5 |
| 20260506210503 | 68 | 227 | 0.0 | 3.5 | 0.00 | 0.00 | 0.00 | 67 | 1019.5 |
| 20260506210003 | 68 | 227 | 0.0 | 3.5 | 0.00 | 0.00 | 0.00 | 68 | 1019.6 |
| 20260506205503 | 68 | 227 | 0.0 | 3.5 | 0.00 | 0.00 | 0.00 | 67 | 1019.6 |
| 20260506205215 | 67 | 227 | 0.9 | 3.5 | 0.00 | 0.00 | 0.00 | 69 | 1019.5 |
| 20260506204713 | 67 | 227 | 1.7 | 4.3 | 0.00 | 0.00 | 0.00 | 68 | 1019.6 |
| 20260506204216 | 67 | 227 | 1.7 | 4.3 | 0.00 | 0.00 | 0.00 | 67 | 1019.6 |
| 20260506203503 | 68 | 227 | 0.9 | 4.3 | 0.00 | 0.00 | 0.00 | 67 | 1019.7 |
| 20260506203003 | 68 | 227 | 0.0 | 3.5 | 0.00 | 0.00 | 0.00 | 67 | 1019.7 |
| 20260506202503 | 68 | 227 | 0.9 | 4.3 | 0.00 | 0.00 | 0.00 | 70 | 1019.8 |
| 20260506202003 | 67 | 227 | 1.7 | 6.1 | 0.00 | 0.00 | 0.00 | 68 | 1019.9 |
| 20260506201715 | 66 | 227 | 1.7 | 7.0 | 0.00 | 0.00 | 0.00 | 70 | 1020.0 |
| 20260506201003 | 66 | 227 | 1.7 | 7.0 | 0.00 | 0.00 | 0.00 | 68 | 1020.0 |
| 20260506200503 | 66 | 227 | 0.9 | 5.2 | 0.00 | 0.00 | 0.00 | 67 | 1020.1 |
| 20260506200004 | 66 | 227 | 1.7 | 5.2 | 0.00 | 0.00 | 0.00 | 68 | 1020.1 |
| 20260506195503 | 66 | 227 | 1.7 | 4.3 | 0.00 | 0.00 | 0.00 | 69 | 1020.2 |
| 20260506195003 | 66 | 227 | 1.7 | 6.1 | 0.00 | 0.00 | 0.00 | 68 | 1020.2 |
| 20260506194503 | 66 | 227 | 1.7 | 6.1 | 0.00 | 0.00 | 0.00 | 68 | 1020.1 |
| 20260506194003 | 65 | 227 | 0.9 | 4.3 | 0.00 | 0.00 | 0.00 | 70 | 1020.3 |
| 20260506193503 | 65 | 227 | 0.0 | 2.6 | 0.00 | 0.00 | 0.00 | 68 | 1020.2 |
| 20260506193003 | 65 | 227 | 0.9 | 5.2 | 0.00 | 0.00 | 0.00 | 69 | 1020.3 |
| 20260506192503 | 65 | 227 | 0.0 | 5.2 | 0.00 | 0.00 | 0.00 | 69 | 1020.3 |
| 20260506192003 | 65 | 227 | 0.9 | 3.5 | 0.00 | 0.00 | 0.00 | 69 | 1020.3 |
| 20260506191503 | 64 | 227 | 0.9 | 5.2 | 0.00 | 0.00 | 0.00 | 70 | 1020.3 |
| 20260506191003 | 65 | 227 | 0.9 | 5.2 | 0.00 | 0.00 | 0.00 | 68 | 1020.3 |
| 20260506190503 | 64 | 227 | 0.9 | 3.5 | 0.00 | 0.00 | 0.00 | 69 | 1020.3 |
| 20260506190003 | 64 | 227 | 0.9 | 3.5 | 0.00 | 0.00 | 0.00 | 69 | 1020.4 |
| 20260506185503 | 64 | 227 | 0.9 | 4.3 | 0.00 | 0.00 | 0.00 | 69 | 1020.3 |
| 20260506185003 | 64 | 227 | 0.9 | 4.3 | 0.00 | 0.00 | 0.00 | 69 | 1020.4 |
| 20260506184503 | 63 | 227 | 0.9 | 3.5 | 0.00 | 0.00 | 0.00 | 69 | 1020.3 |
| 20260506184003 | 64 | 227 | 0.9 | 3.5 | 0.00 | 0.00 | 0.00 | 74 | 1020.3 |
| 20260506183503 | 64 | 227 | 0.9 | 3.5 | 0.00 | 0.00 | 0.00 | 74 | 1020.4 |
| 20260506183213 | 64 | 227 | 0.0 | 3.5 | 0.00 | 0.00 | 0.00 | 73 | 1020.4 |
| 20260506182503 | 63 | 227 | 0.0 | 6.1 | 0.00 | 0.00 | 0.00 | 72 | 1020.5 |
| 20260506182003 | 62 | 227 | 0.9 | 6.1 | 0.00 | 0.00 | 0.00 | 71 | 1020.5 |
| 20260506181503 | 61 | 227 | 0.0 | 3.5 | 0.00 | 0.00 | 0.00 | 71 | 1020.6 |
| 20260506181215 | 61 | 227 | 0.0 | 3.5 | 0.00 | 0.00 | 0.00 | 72 | 1020.5 |
| 20260506180503 | 61 | 227 | 0.9 | 3.5 | 0.00 | 0.00 | 0.00 | 73 | 1020.5 |
| 20260506180004 | 60 | 227 | 0.0 | 3.5 | 0.00 | 0.00 | 0.00 | 73 | 1020.5 |
| 20260506175503 | 60 | 227 | 0.0 | 3.5 | 0.00 | 0.00 | 0.00 | 73 | 1020.6 |
| 20260506175217 | 59 | 227 | 0.9 | 4.3 | 0.00 | 0.00 | 0.00 | 74 | 1020.6 |
| 20260506174715 | 59 | 227 | 0.9 | 4.3 | 0.00 | 0.00 | 0.00 | 74 | 1020.5 |
| 20260506174003 | 58 | 227 | 0.9 | 4.3 | 0.00 | 0.00 | 0.00 | 75 | 1020.5 |
| 20260506173716 | 58 | 227 | 0.9 | 4.3 | 0.00 | 0.00 | 0.00 | 76 | 1020.5 |
| 20260506173003 | 57 | 227 | 0.0 | 3.5 | 0.00 | 0.00 | 0.00 | 77 | 1020.5 |
| 20260506172503 | 57 | 227 | 0.9 | 4.3 | 0.00 | 0.00 | 0.00 | 78 | 1020.5 |
| 20260506172003 | 56 | 227 | 0.9 | 4.3 | 0.00 | 0.00 | 0.00 | 79 | 1020.5 |
| 20260506171503 | 55 | 227 | 0.9 | 4.3 | 0.00 | 0.00 | 0.00 | 79 | 1020.5 |
| 20260506171003 | 54 | 227 | 0.9 | 4.3 | 0.00 | 0.00 | 0.00 | 80 | 1020.7 |
| 20260506170503 | 53 | 227 | 0.9 | 4.3 | 0.00 | 0.00 | 0.00 | 80 | 1020.7 |
| 20260506170003 | 52 | 227 | 0.9 | 4.3 | 0.00 | 0.00 | 0.00 | 80 | 1020.6 |
| 20260506165503 | 52 | 227 | 0.9 | 6.1 | 0.00 | 0.00 | 0.00 | 80 | 1020.6 |
| 20260506165003 | 52 | 224 | 0.9 | 7.8 | 0.00 | 0.00 | 0.00 | 80 | 1020.5 |
| 20260506164503 | 51 | 221 | 0.9 | 7.8 | 0.00 | 0.00 | 0.00 | 80 | 1020.5 |
| 20260506164003 | 51 | 220 | 1.7 | 4.3 | 0.00 | 0.00 | 0.00 | 80 | 1020.5 |
| 20260506163503 | 51 | 220 | 1.7 | 4.3 | 0.00 | 0.00 | 0.00 | 80 | 1020.5 |
| 20260506163003 | 50 | 220 | 2.6 | 4.3 | 0.00 | 0.00 | 0.00 | 80 | 1020.5 |
| 20260506162717 | 50 | 220 | 3.5 | 4.3 | 0.00 | 0.00 | 0.00 | 80 | 1020.5 |
| 20260506162215 | 50 | 220 | 3.5 | 5.2 | 0.00 | 0.00 | 0.00 | 80 | 1020.6 |
| 20260506161503 | 50 | 220 | 2.6 | 5.2 | 0.00 | 0.00 | 0.00 | 80 | 1020.6 |
| 20260506161003 | 50 | 220 | 1.7 | 5.2 | 0.00 | 0.00 | 0.00 | 80 | 1020.5 |
| 20260506160503 | 50 | 219 | 0.0 | 2.6 | 0.00 | 0.00 | 0.00 | 80 | 1020.4 |
| 20260506160003 | 50 | 219 | 0.9 | 3.5 | 0.00 | 0.00 | 0.00 | 80 | 1020.4 |
| 20260506155715 | 50 | 219 | 0.9 | 4.3 | 0.00 | 0.00 | 0.00 | 80 | 1020.5 |
| 20260506155213 | 50 | 219 | 0.9 | 4.3 | 0.00 | 0.00 | 0.00 | 80 | 1020.5 |
| 20260506154716 | 50 | 218 | 0.0 | 2.6 | 0.00 | 0.00 | 0.00 | 80 | 1020.5 |
| 20260506154003 | 50 | 0 | 0.0 | 0.0 | 0.00 | 0.00 | 0.00 | 80 | 1020.4 |
| 20260506153503 | 50 | 0 | 0.0 | 0.0 | 0.00 | 0.00 | 0.00 | 80 | 1020.4 |
| 20260506153003 | 49 | 218 | 0.0 | 4.3 | 0.00 | 0.00 | 0.00 | 80 | 1020.3 |
| 20260506152503 | 49 | 218 | 0.9 | 4.3 | 0.00 | 0.00 | 0.00 | 80 | 1020.3 |
| 20260506152003 | 49 | 218 | 0.0 | 3.5 | 0.00 | 0.00 | 0.00 | 80 | 1020.4 |
| 20260506151503 | 50 | 0 | 0.0 | 0.0 | 0.00 | 0.00 | 0.00 | 80 | 1020.4 |
| 20260506151003 | 49 | 0 | 0.0 | 0.0 | 0.00 | 0.00 | 0.00 | 80 | 1020.3 |
| 20260506150503 | 49 | 0 | 0.0 | 0.0 | 0.00 | 0.00 | 0.00 | 80 | 1020.4 |
| 20260506150003 | 49 | 0 | 0.0 | 0.0 | 0.00 | 0.00 | 0.00 | 80 | 1020.4 |
| 20260506145503 | 49 | 0 | 0.0 | 0.0 | 0.00 | 0.00 | 0.00 | 80 | 1020.4 |
| 20260506145003 | 49 | 0 | 0.0 | 0.0 | 0.00 | 0.00 | 0.00 | 80 | 1020.3 |
| 20260506144503 | 49 | 0 | 0.0 | 0.0 | 0.00 | 0.00 | 0.00 | 80 | 1020.4 |
| 20260506144003 | 49 | 0 | 0.0 | 0.0 | 0.00 | 0.00 | 0.00 | 80 | 1020.3 |
| 20260506143503 | 49 | 0 | 0.0 | 0.0 | 0.00 | 0.00 | 0.00 | 80 | 1020.2 |
| 20260506143003 | 49 | 0 | 0.0 | 0.0 | 0.00 | 0.00 | 0.00 | 80 | 1020.2 |
| 20260506142503 | 48 | 0 | 0.0 | 0.0 | 0.00 | 0.00 | 0.00 | 80 | 1020.2 |
| 20260506142003 | 48 | 0 | 0.0 | 0.0 | 0.00 | 0.00 | 0.00 | 80 | 1020.2 |
| 20260506141503 | 48 | 0 | 0.0 | 0.0 | 0.00 | 0.00 | 0.00 | 80 | 1020.1 |
| 20260506141003 | 48 | 0 | 0.0 | 0.0 | 0.00 | 0.00 | 0.00 | 80 | 1020.2 |
| 20260506140715 | 48 | 0 | 0.0 | 0.0 | 0.00 | 0.00 | 0.00 | 80 | 1020.2 |
| 20260506140003 | 48 | 0 | 0.0 | 0.0 | 0.00 | 0.00 | 0.00 | 80 | 1020.2 |
| 20260506135503 | 48 | 0 | 0.0 | 0.0 | 0.00 | 0.00 | 0.00 | 79 | 1020.2 |
| 20260506135214 | 48 | 0 | 0.0 | 0.0 | 0.00 | 0.00 | 0.00 | 79 | 1020.1 |
| 20260506134503 | 48 | 0 | 0.0 | 0.0 | 0.00 | 0.00 | 0.00 | 79 | 1020.0 |
| 20260506134003 | 48 | 0 | 0.0 | 0.0 | 0.00 | 0.00 | 0.00 | 79 | 1019.8 |
| 20260506133503 | 48 | 0 | 0.0 | 0.0 | 0.00 | 0.00 | 0.00 | 79 | 1019.8 |
| 20260506133003 | 48 | 219 | 0.0 | 1.7 | 0.00 | 0.00 | 0.00 | 79 | 1019.7 |
| 20260506132714 | 48 | 219 | 0.0 | 1.7 | 0.00 | 0.00 | 0.00 | 80 | 1019.7 |
| 20260506132003 | 48 | 220 | 0.9 | 3.5 | 0.00 | 0.00 | 0.00 | 80 | 1019.6 |
| 20260506131503 | 48 | 220 | 0.9 | 4.3 | 0.00 | 0.00 | 0.00 | 79 | 1019.5 |
| 20260506131003 | 48 | 220 | 0.9 | 4.3 | 0.00 | 0.00 | 0.00 | 79 | 1019.5 |
| 20260506130716 | 48 | 220 | 0.9 | 3.5 | 0.00 | 0.00 | 0.00 | 79 | 1019.5 |
| 20260506130004 | 48 | 220 | 1.7 | 5.2 | 0.00 | 0.00 | 0.00 | 79 | 1019.6 |
| 20260506125717 | 48 | 220 | 2.6 | 5.2 | 0.00 | 0.00 | 0.00 | 79 | 1019.6 |
| 20260506125003 | 48 | 220 | 0.9 | 3.5 | 0.00 | 0.00 | 0.00 | 79 | 1019.5 |
| 20260506124503 | 48 | 0 | 0.0 | 0.0 | 0.00 | 0.00 | 0.00 | 79 | 1019.4 |
| 20260506124003 | 48 | 0 | 0.0 | 0.0 | 0.00 | 0.00 | 0.00 | 79 | 1019.3 |
| 20260506123503 | 48 | 0 | 0.0 | 0.0 | 0.00 | 0.00 | 0.00 | 79 | 1019.4 |
| 20260506123003 | 48 | 219 | 0.0 | 2.6 | 0.00 | 0.00 | 0.00 | 79 | 1019.4 |
| 20260506122503 | 48 | 219 | 0.9 | 3.5 | 0.00 | 0.00 | 0.00 | 79 | 1019.4 |
| 20260506122003 | 48 | 219 | 0.0 | 3.5 | 0.00 | 0.00 | 0.00 | 79 | 1019.3 |
| 20260506121503 | 48 | 0 | 0.0 | 0.0 | 0.00 | 0.00 | 0.00 | 79 | 1019.2 |
| 20260506121003 | 48 | 0 | 0.0 | 0.0 | 0.00 | 0.00 | 0.00 | 79 | 1019.3 |
| 20260506120503 | 48 | 0 | 0.0 | 0.0 | 0.00 | 0.00 | 0.00 | 79 | 1019.3 |
| 20260506120003 | 48 | 0 | 0.0 | 0.0 | 0.00 | 0.00 | 0.00 | 79 | 1019.2 |
| 20260506115712 | 48 | 0 | 0.0 | 0.0 | 0.00 | 0.00 | 0.00 | 79 | 1019.2 |
| 20260506115216 | 48 | 0 | 0.0 | 0.0 | 0.00 | 0.00 | 0.00 | 79 | 1019.2 |
| 20260506114503 | 48 | 0 | 0.0 | 0.0 | 0.00 | 0.02 | 0.00 | 79 | 1019.0 |
| 20260506114018 | 48 | 0 | 0.0 | 0.0 | 0.00 | 0.02 | 0.00 | 79 | 1019.2 |
| 20260506113714 | 48 | 0 | 0.0 | 0.0 | 0.00 | 0.02 | 0.00 | 79 | 1019.1 |
| 20260506113003 | 49 | 0 | 0.0 | 0.0 | 0.00 | 0.02 | 0.00 | 79 | 1019.1 |
| 20260506112503 | 49 | 0 | 0.0 | 0.0 | 0.00 | 0.02 | 0.00 | 79 | 1019.1 |
| 20260506112003 | 49 | 0 | 0.0 | 0.0 | 0.00 | 0.02 | 0.00 | 79 | 1019.1 |
| 20260506111503 | 49 | 0 | 0.0 | 0.0 | 0.00 | 0.02 | 0.00 | 79 | 1019.1 |
| 20260506111003 | 49 | 0 | 0.0 | 0.0 | 0.00 | 0.02 | 0.00 | 79 | 1019.1 |
| 20260506110717 | 49 | 0 | 0.0 | 0.0 | 0.00 | 0.02 | 0.00 | 79 | 1019.0 |
| 20260506110215 | 49 | 0 | 0.0 | 0.0 | 0.00 | 0.02 | 0.00 | 79 | 1019.1 |
| 20260506105503 | 49 | 0 | 0.0 | 0.0 | 0.00 | 0.05 | 0.00 | 79 | 1018.9 |
| 20260506105003 | 49 | 0 | 0.0 | 0.0 | 0.00 | 0.05 | 0.00 | 79 | 1018.9 |
| 20260506104714 | 49 | 0 | 0.0 | 0.0 | 0.00 | 0.05 | 0.00 | 79 | 1018.9 |
| 20260506104003 | 49 | 0 | 0.0 | 0.0 | 0.00 | 0.05 | 0.00 | 79 | 1018.8 |
| 20260506103503 | 49 | 0 | 0.0 | 0.0 | 0.00 | 0.05 | 0.00 | 79 | 1018.9 |
| 20260506103003 | 49 | 0 | 0.0 | 0.0 | 0.00 | 0.05 | 0.00 | 79 | 1018.9 |
| 20260506102716 | 49 | 0 | 0.0 | 0.0 | 0.00 | 0.05 | 0.00 | 79 | 1018.9 |
| 20260506102214 | 49 | 0 | 0.0 | 0.0 | 0.00 | 0.05 | 0.00 | 79 | 1018.9 |
| 20260506101503 | 49 | 0 | 0.0 | 0.0 | 0.00 | 0.05 | 0.00 | 79 | 1018.9 |
| 20260506101003 | 49 | 0 | 0.0 | 0.0 | 0.00 | 0.05 | 0.00 | 79 | 1018.9 |
| 20260506100503 | 49 | 0 | 0.0 | 0.0 | 0.00 | 0.05 | 0.00 | 79 | 1018.9 |
| 20260506100003 | 49 | 0 | 0.0 | 0.0 | 0.00 | 0.05 | 0.00 | 79 | 1018.9 |
| 20260506095503 | 49 | 0 | 0.0 | 0.0 | 0.00 | 0.05 | 0.00 | 79 | 1018.9 |
| 20260506095003 | 49 | 0 | 0.0 | 0.0 | 0.00 | 0.05 | 0.00 | 79 | 1019.0 |
| 20260506094503 | 49 | 0 | 0.0 | 0.0 | 0.00 | 0.05 | 0.00 | 79 | 1018.9 |
| 20260506094003 | 49 | 220 | 0.0 | 0.9 | 0.00 | 0.05 | 0.00 | 79 | 1019.0 |
| 20260506093503 | 49 | 220 | 0.0 | 0.9 | 0.00 | 0.05 | 0.00 | 79 | 1019.0 |
| 20260506093003 | 49 | 0 | 0.0 | 0.0 | 0.00 | 0.05 | 0.00 | 79 | 1019.1 |
| 20260506092717 | 49 | 0 | 0.0 | 0.0 | 0.00 | 0.05 | 0.00 | 79 | 1019.1 |
| 20260506092214 | 49 | 0 | 0.0 | 0.0 | 0.00 | 0.05 | 0.00 | 79 | 1019.0 |
| 20260506091503 | 49 | 0 | 0.0 | 0.0 | 0.00 | 0.05 | 0.00 | 79 | 1018.9 |
| 20260506091003 | 49 | 0 | 0.0 | 0.0 | 0.00 | 0.05 | 0.00 | 79 | 1019.0 |
| 20260506090713 | 49 | 0 | 0.0 | 0.0 | 0.00 | 0.05 | 0.00 | 79 | 1019.0 |
| 20260506090216 | 49 | 0 | 0.0 | 0.0 | 0.00 | 0.05 | 0.00 | 79 | 1019.0 |
| 20260506085503 | 49 | 0 | 0.0 | 0.0 | 0.00 | 0.05 | 0.00 | 79 | 1019.0 |
| 20260506085003 | 49 | 0 | 0.0 | 0.0 | 0.00 | 0.05 | 0.00 | 79 | 1019.0 |
| 20260506084503 | 49 | 0 | 0.0 | 0.0 | 0.00 | 0.05 | 0.00 | 79 | 1019.0 |
| 20260506084003 | 49 | 0 | 0.0 | 0.0 | 0.00 | 0.05 | 0.00 | 79 | 1019.0 |
| 20260506083503 | 49 | 0 | 0.0 | 0.0 | 0.00 | 0.05 | 0.00 | 79 | 1019.0 |
| 20260506083214 | 49 | 0 | 0.0 | 0.0 | 0.00 | 0.05 | 0.00 | 79 | 1019.1 |
| 20260506082503 | 49 | 0 | 0.0 | 0.0 | 0.00 | 0.05 | 0.00 | 79 | 1019.2 |
| 20260506082003 | 49 | 0 | 0.0 | 0.0 | 0.00 | 0.05 | 0.00 | 79 | 1019.2 |
| 20260506081503 | 49 | 0 | 0.0 | 0.0 | 0.00 | 0.05 | 0.00 | 79 | 1019.2 |
| 20260506081216 | 49 | 0 | 0.0 | 0.0 | 0.00 | 0.05 | 0.00 | 79 | 1019.1 |
| 20260506080503 | 49 | 0 | 0.0 | 0.0 | 0.00 | 0.05 | 0.00 | 79 | 1019.1 |
| 20260506073503 | 48 | 0 | 0.0 | 0.0 | 0.00 | 0.05 | 0.00 | 79 | 1019.0 |
| 20260506073003 | 49 | 0 | 0.0 | 0.0 | 0.00 | 0.05 | 0.00 | 79 | 1018.9 |
| 20260506072713 | 49 | 0 | 0.0 | 0.0 | 0.00 | 0.05 | 0.00 | 79 | 1018.8 |
| 20260506072003 | 49 | 0 | 0.0 | 0.0 | 0.00 | 0.05 | 0.00 | 79 | 1018.8 |
| 20260506071714 | 49 | 0 | 0.0 | 0.0 | 0.00 | 0.05 | 0.00 | 79 | 1018.8 |
| 20260506071003 | 49 | 0 | 0.0 | 0.0 | 0.00 | 0.05 | 0.00 | 79 | 1018.7 |
| 20260506070715 | 49 | 0 | 0.0 | 0.0 | 0.00 | 0.05 | 0.00 | 79 | 1018.7 |
| 20260506070218 | 49 | 220 | 0.0 | 2.6 | 0.00 | 0.05 | 0.00 | 79 | 1018.7 |
| 20260506062503 | 49 | 220 | 0.9 | 2.6 | 0.00 | 0.05 | 0.05 | 79 | 1018.5 |
| 20260506062003 | 49 | 220 | 0.9 | 3.5 | 0.00 | 0.05 | 0.05 | 79 | 1018.6 |
| 20260506061503 | 49 | 220 | 1.7 | 5.2 | 0.00 | 0.05 | 0.05 | 79 | 1018.4 |
| 20260506061003 | 49 | 220 | 1.7 | 5.2 | 0.00 | 0.05 | 0.05 | 79 | 1018.5 |
| 20260506060503 | 49 | 220 | 2.6 | 4.3 | 0.00 | 0.05 | 0.05 | 79 | 1018.5 |
| 20260506051213 | 49 | 220 | 1.7 | 5.2 | 0.00 | 0.05 | 0.05 | 79 | 1018.1 |
| 20260506050503 | 49 | 220 | 1.7 | 5.2 | 0.00 | 0.05 | 0.05 | 79 | 1018.1 |
| 20260506045003 | 49 | 220 | 2.6 | 4.3 | 0.00 | 0.05 | 0.05 | 79 | 1017.9 |
| 20260506044503 | 49 | 220 | 2.6 | 4.3 | 0.00 | 0.05 | 0.05 | 79 | 1017.9 |
| 20260506044003 | 49 | 220 | 1.7 | 4.3 | 0.00 | 0.05 | 0.05 | 79 | 1017.9 |
| 20260506043503 | 50 | 220 | 1.7 | 4.3 | 0.00 | 0.05 | 0.05 | 79 | 1017.8 |
| 20260506043003 | 50 | 220 | 2.6 | 4.3 | 0.00 | 0.05 | 0.05 | 79 | 1017.8 |
| 20260506042503 | 49 | 220 | 1.7 | 4.3 | 0.00 | 0.05 | 0.05 | 79 | 1017.8 |
| 20260506042003 | 50 | 220 | 2.6 | 3.5 | 0.00 | 0.05 | 0.05 | 79 | 1017.7 |
| 20260506041503 | 50 | 220 | 2.6 | 5.2 | 0.00 | 0.05 | 0.05 | 79 | 1017.6 |
| 20260506041003 | 50 | 220 | 2.6 | 5.2 | 0.00 | 0.05 | 0.05 | 79 | 1017.6 |
| 20260506040503 | 50 | 220 | 2.6 | 4.3 | 0.00 | 0.05 | 0.05 | 79 | 1017.5 |
| 20260506040003 | 50 | 220 | 2.6 | 4.3 | 0.00 | 0.05 | 0.05 | 79 | 1017.5 |
| 20260506035503 | 50 | 220 | 1.7 | 3.5 | 0.00 | 0.05 | 0.05 | 79 | 1017.5 |
| 20260506035215 | 50 | 220 | 2.6 | 3.5 | 0.00 | 0.05 | 0.05 | 79 | 1017.4 |
| 20260506034503 | 50 | 220 | 2.6 | 5.2 | 0.00 | 0.05 | 0.05 | 79 | 1017.4 |
| 20260506034004 | 50 | 220 | 2.6 | 5.2 | 0.00 | 0.05 | 0.05 | 79 | 1017.3 |
| 20260506033503 | 50 | 220 | 2.6 | 4.3 | 0.00 | 0.05 | 0.05 | 79 | 1017.1 |
| 20260506033003 | 49 | 220 | 2.6 | 4.3 | 0.00 | 0.05 | 0.05 | 79 | 1017.2 |
| 20260506032503 | 49 | 220 | 2.6 | 4.3 | 0.00 | 0.05 | 0.05 | 79 | 1017.2 |
| 20260506032003 | 49 | 220 | 1.7 | 3.5 | 0.00 | 0.05 | 0.05 | 79 | 1017.0 |
| 20260506031716 | 49 | 220 | 1.7 | 3.5 | 0.00 | 0.05 | 0.05 | 79 | 1017.0 |
| 20260506031003 | 49 | 220 | 1.7 | 3.5 | 0.00 | 0.05 | 0.05 | 79 | 1016.9 |
| 20260506030503 | 49 | 220 | 1.7 | 3.5 | 0.00 | 0.05 | 0.05 | 79 | 1016.9 |
| 20260506030003 | 49 | 220 | 1.7 | 4.3 | 0.00 | 0.05 | 0.05 | 79 | 1016.7 |
| 20260506025713 | 49 | 220 | 1.7 | 4.3 | 0.00 | 0.05 | 0.05 | 79 | 1016.8 |
| 20260506025216 | 49 | 220 | 2.6 | 4.3 | 0.00 | 0.05 | 0.05 | 79 | 1016.7 |
| 20260506024714 | 49 | 220 | 2.6 | 5.2 | 0.00 | 0.05 | 0.05 | 79 | 1016.7 |
| 20260506024003 | 49 | 220 | 3.5 | 7.0 | 0.00 | 0.05 | 0.05 | 79 | 1016.6 |
| 20260506023503 | 49 | 220 | 3.5 | 6.1 | 0.00 | 0.05 | 0.05 | 79 | 1016.6 |
| 20260506023003 | 49 | 220 | 3.5 | 6.1 | 0.00 | 0.05 | 0.05 | 79 | 1016.6 |
| 20260506022503 | 49 | 220 | 3.5 | 6.1 | 0.00 | 0.05 | 0.05 | 79 | 1016.6 |
| 20260506022003 | 49 | 220 | 3.5 | 6.1 | 0.00 | 0.05 | 0.05 | 79 | 1016.6 |
| 20260506021503 | 50 | 220 | 3.5 | 6.1 | 0.00 | 0.05 | 0.05 | 79 | 1016.6 |
| 20260506021003 | 50 | 220 | 3.5 | 5.2 | 0.00 | 0.05 | 0.05 | 79 | 1016.6 |
| 20260506020503 | 50 | 220 | 2.6 | 5.2 | 0.00 | 0.05 | 0.05 | 79 | 1016.5 |
| 20260506020003 | 50 | 220 | 3.5 | 6.1 | 0.00 | 0.05 | 0.05 | 79 | 1016.5 |